Wind_Speed
30 31 32 32 32 32 33 33 34 34 34 33 34 34 34 35 37 37 38 38 38 39 39 40 41 41 42 42 42 42 42 43 43 44 44 45 45 47 47 47 48 48 48 47
30 31 32 33 32 33 33 33 34 34 33 33 35 35 35 36 37 37 37 37 38 38 39 39 40 40 41 42 42 42 42 42 43 44 45 46 45 46 47 48 48 48 48 47
31 31 32 33 31 32 32 32 33 34 33 33 34 35 36 36 37 37 36 37 37 38 38 39 39 40 40 41 42 42 43 43 44 45 45 45 45 46 47 47 47 48 49 49
32 33 35 32 32 33 34 33 33 34 34 34 35 35 36 37 37 37 37 38 38 39 39 39 40 40 41 41 41 42 43 44 44 45 45 45 46 46 47 47 48 48 48 49
34 36 36 34 33 33 34 33 33 34 34 35 36 36 37 37 38 38 38 39 39 39 40 40 40 40 41 41 42 42 42 43 44 44 44 45 45 46 47 47 47 47 48 48
34 36 37 34 33 34 34 34 33 34 35 36 37 37 37 38 38 39 39 39 39 39 40 40 40 41 42 43 43 43 43 43 44 45 44 44 44 45 45 46 46 46 47 47
34 36 36 34 34 34 35 35 35 35 36 36 37 38 38 38 39 39 39 39 39 39 40 40 41 42 42 43 43 43 43 44 44 44 44 45 44 44 45 45 46 46 47 47
34 36 34 34 34 35 35 35 36 36 37 37 37 38 38 38 38 38 39 39 39 39 39 40 41 42 42 42 42 42 42 42 43 44 44 44 45 45 45 45 46 47 47 47
35 35 35 34 34 35 36 36 37 38 38 39 38 38 38 37 37 37 38 38 39 39 38 39 39 40 40 40 41 41 41 42 42 42 43 44 44 44 45 45 45 46 47 47
35 35 36 36 35 35 36 36 37 38 38 39 38 38 37 37 36 36 37 37 38 38 38 38 38 38 39 39 40 41 41 41 41 42 43 43 43 43 44 45 45 45 46 46
35 35 35 35 36 36 36 36 37 37 37 37 37 37 36 36 36 36 37 37 37 37 37 37 38 39 39 39 40 41 41 41 41 42 42 42 43 43 43 44 44 45 45 45
34 34 35 35 36 36 36 36 37 37 37 36 36 36 36 36 36 36 36 37 37 38 38 39 39 40 40 41 41 41 41 41 41 41 41 41 41 42 42 43 44 44 45 45
34 34 35 36 36 36 36 37 38 38 37 37 37 37 37 37 37 37 37 38 38 39 39 40 40 40 40 41 40 40 40 40 40 39 39 39 40 40 41 41 42 42 43 43
34 35 36 36 36 36 37 37 38 38 38 38 37 37 38 38 39 39 39 39 39 39 40 40 41 41 40 39 39 39 39 39 39 39 39 39 39 39 39 40 40 40 40 41
35 35 36 36 36 36 37 37 37 37 38 38 38 38 38 39 39 39 39 39 39 40 40 40 40 40 40 39 38 38 38 38 38 38 38 39 39 39 39 39 39 38 38 38
34 35 35 35 35 36 36 36 36 36 37 38 38 38 39 39 39 39 39 38 38 39 39 40 40 39 39 39 39 38 38 38 38 37 37 38 38 38 37 37 37 36 36 36
34 34 34 35 35 35 35 35 35 35 36 36 37 37 38 38 38 38 38 38 38 39 39 39 39 39 39 39 38 38 38 37 37 36 36 36 35 35 35 34 35 35 36 36
32 33 33 33 33 33 33 34 34 34 34 35 35 35 35 36 36 36 37 37 37 38 38 38 38 38 37 37 37 37 37 36 36 35 35 34 33 33 32 33 34 34 35 36
30 30 31 31 32 32 33 33 33 33 33 33 34 34 34 34 34 35 35 35 36 36 36 36 37 37 36 36 37 36 36 36 35 35 34 33 32 32 31 32 32 33 34 34
29 29 30 30 31 32 32 33 33 33 32 33 33 33 33 33 34 34 34 34 34 34 35 35 35 35 34 34 35 34 34 34 33 33 32 32 31 31 31 31 31 32 32 32
29 30 30 30 31 31 32 32 32 31 32 32 32 33 33 33 33 33 33 33 33 33 33 33 33 33 33 32 32 32 32 31 31 30 30 30 30 30 30 30 30 30 30 30
29 29 29 30 30 31 31 31 31 31 31 31 32 32 32 32 32 32 32 32 32 32 31 31 31 31 31 31 30 30 30 29 29 29 29 29 30 30 29 29 29 29 29 29
29 29 29 30 30 30 30 31 30 30 31 31 31 30 30 30 30 30 30 30 30 30 29 29 29 29 29 29 29 29 29 28 29 29 29 30 29 29 29 28 28 28 28 28
28 29 30 30 30 30 29 29 29 29 29 29 29 29 29 29 29 29 29 28 28 28 28 27 27 27 27 27 27 28 28 28 28 28 28 29 29 28 28 28 27 27 27 27
28 28 28 29 29 28 28 27 27 27 28 27 27 27 27 27 27 27 27 27 27 27 27 26 26 26 26 26 26 26 26 26 26 26 26 26 26 26 26 26 26 26 26 26
27 28 28 28 27 27 27 27 26 26 26 26 26 26 26 26 26 27 27 27 26 26 26 25 25 25 25 25 26 26 25 25 25 25 25 25 25 25 25 25 25 25 24 24
27 28 27 27 27 27 27 27 26 26 26 26 26 26 26 26 26 26 26 25 25 25 25 25 25 25 25 25 25 24 24 24 24 24 24 24 24 24 24 24 24 23 23 22
Wind_Direction
271 270 270 270 271 271 273 274 274 274 272 272 273 274 273 271 270 270 271 271 271 271 271 270 271 271 271 270 270 271 272 272 272 272 271 270 270 268 266 266 266 265 265 265
273 272 271 270 271 272 273 274 275 274 273 273 273 274 273 273 272 272 273 272 272 272 272 271 271 271 271 272 272 272 272 273 274 273 272 271 270 269 267 267 266 265 264 265
275 274 273 273 274 273 275 276 276 277 276 275 275 275 274 274 273 273 273 272 272 272 272 271 270 271 272 272 273 273 273 273 273 273 273 272 270 268 267 267 265 265 266 266
275 275 273 277 276 276 276 277 277 277 276 275 276 276 276 275 274 274 274 274 274 272 271 271 271 272 272 272 274 274 274 274 274 274 272 272 271 269 267 267 266 265 266 266
275 276 276 276 278 277 277 277 279 279 278 277 277 278 278 277 276 275 274 274 273 273 272 271 271 272 272 273 274 274 274 274 274 274 273 272 271 269 268 266 266 266 267 267
276 278 278 278 278 277 278 278 279 280 280 279 278 278 279 277 276 275 274 274 273 273 273 272 272 273 274 274 275 274 274 273 273 274 274 272 271 270 268 267 265 266 267 267
278 279 279 280 280 279 279 281 281 280 280 280 279 279 279 279 278 277 275 275 275 274 274 274 275 276 276 276 276 276 275 274 274 274 273 272 271 270 269 267 266 266 268 268
278 279 283 283 282 280 280 280 280 280 280 280 281 281 281 280 280 279 277 276 275 275 276 276 277 277 277 278 278 278 276 276 276 275 274 273 272 271 269 268 268 267 267 268
279 280 281 282 282 280 279 279 279 279 280 280 281 281 281 281 280 280 280 278 277 277 278 278 279 279 278 279 279 279 278 278 277 276 275 274 273 271 269 268 268 267 267 268
279 280 280 280 280 280 280 279 280 280 280 281 281 282 282 282 281 281 280 280 280 280 280 280 280 281 280 281 281 280 280 279 278 277 277 276 274 271 269 268 268 267 267 267
280 280 279 279 280 279 279 280 280 280 281 281 281 281 282 281 282 282 281 281 282 282 282 282 282 283 282 282 282 281 281 281 280 279 277 276 275 273 271 270 268 267 266 266
281 280 279 279 279 279 279 280 281 281 281 281 281 280 280 281 282 283 283 283 283 282 283 283 284 284 284 283 283 283 282 282 282 280 278 276 275 274 273 271 269 267 267 266
278 279 280 280 280 280 280 281 281 281 281 281 281 281 280 281 282 283 284 284 284 284 283 284 285 285 285 284 283 282 282 281 281 280 279 277 275 274 273 271 269 268 267 266
279 280 281 281 280 280 280 282 282 282 282 282 282 281 281 281 282 283 284 284 284 284 285 285 285 285 285 285 284 283 282 282 281 280 279 277 276 275 273 270 269 268 266 265
281 282 283 282 281 281 281 282 284 284 283 283 282 282 282 282 283 283 283 283 284 284 285 285 285 285 285 285 285 285 284 284 283 282 280 278 277 276 274 272 270 269 267 266
282 282 283 283 282 283 283 283 284 285 284 283 282 282 282 282 282 282 282 283 284 285 285 285 286 285 285 285 285 286 285 285 284 283 282 281 279 277 275 273 271 269 268 267
283 283 283 283 283 284 285 285 285 285 285 284 283 283 282 282 283 283 283 283 284 285 286 285 285 285 285 285 285 285 285 285 284 284 283 282 281 279 277 275 272 271 270 269
285 286 286 285 284 285 285 286 286 286 286 285 284 284 284 284 285 284 284 285 285 285 285 285 284 284 284 285 284 284 284 283 283 283 282 282 282 280 278 276 274 273 272 271
288 288 288 287 287 287 287 288 288 287 287 286 286 286 286 286 287 287 287 287 287 286 286 285 284 283 283 284 283 283 283 283 283 282 282 282 281 281 279 278 276 275 273 272
288 289 289 289 289 289 289 289 288 287 287 287 287 287 287 287 288 289 289 289 289 288 287 286 285 284 284 283 283 283 283 283 282 282 281 281 281 281 280 279 278 276 274 273
288 290 291 291 292 292 291 290 289 288 288 288 288 287 287 288 289 289 289 289 290 289 289 288 286 285 284 283 284 284 284 282 281 281 281 281 282 281 281 280 279 278 276 274
289 290 291 293 293 293 293 292 291 291 290 289 289 288 288 288 289 289 290 290 290 290 290 289 287 286 285 285 285 285 284 283 281 281 282 282 282 281 281 280 280 279 278 276
290 291 292 293 295 295 295 294 293 293 292 292 291 290 289 289 289 289 290 291 291 291 291 289 288 287 286 286 285 285 285 284 283 282 282 283 283 282 281 280 279 278 278 277
294 295 295 295 295 296 297 297 296 295 294 294 293 292 292 292 292 292 292 291 291 291 291 290 289 288 287 287 287 287 287 286 286 285 284 284 283 281 280 279 277 277 277 277
296 297 299 299 298 297 297 298 298 298 297 297 296 295 295 295 296 296 294 294 293 292 291 292 292 292 290 290 290 290 289 288 288 287 287 285 283 282 281 279 277 276 276 275
300 300 300 300 299 298 297 297 298 298 298 298 297 297 298 298 298 298 297 295 294 293 293 293 294 294 293 292 292 292 291 290 288 287 287 286 285 284 282 279 277 276 275 273
302 302 302 302 301 299 298 298 298 298 298 298 298 298 298 299 299 299 298 297 295 294 294 294 295 295 295 294 293 293 292 291 289 289 288 287 285 284 282 280 277 276 274 273
Height
5588 5588 5587 5587 5586 5585 5584 5583 5582 5583 5582 5582 5580 5579 5578 5577 5576 5575 5575 5574 5573 5573 5572 5571 5570 5569 5569 5568 5567 5566 5566 5565 5564 5564 5563 5563 5563 5562 5562 5562 5562 5563 5563 5563
5580 5578 5577 5577 5578 5576 5575 5574 5573 5572 5572 5572 5569 5568 5567 5566 5565 5564 5564 5563 5562 5561 5560 5559 5558 5558 5557 5556 5555 5554 5553 5552 5552 5551 5550 5549 5549 5549 5549 5549 5549 5549 5549 5549
5570 5569 5567 5568 5569 5567 5566 5565 5564 5562 5563 5560 5559 5557 5556 5555 5554 5553 5552 5551 5550 5549 5549 5548 5547 5546 5545 5544 5543 5542 5541 5540 5539 5538 5537 5536 5535 5535 5535 5535 5535 5535 5535 5535
5560 5559 5557 5562 5559 5557 5556 5555 5554 5552 5552 5550 5548 5547 5546 5544 5543 5542 5541 5540 5539 5537 5537 5536 5535 5534 5533 5531 5530 5529 5528 5526 5525 5524 5523 5522 5521 5521 5521 5521 5521 5521 5521 5521
5550 5548 5548 5551 5550 5547 5545 5546 5545 5542 5541 5539 5538 5536 5535 5533 5532 5530 5529 5528 5527 5525 5524 5523 5522 5521 5520 5519 5517 5516 5514 5513 5512 5510 5509 5508 5508 5507 5507 5507 5507 5508 5508 5507
5541 5538 5538 5543 5540 5537 5536 5536 5535 5532 5530 5529 5527 5526 5525 5522 5520 5518 5517 5515 5514 5513 5512 5511 5509 5508 5507 5505 5504 5503 5501 5500 5498 5497 5496 5495 5494 5494 5494 5494 5494 5494 5494 5493
5531 5528 5529 5531 5529 5527 5526 5526 5524 5521 5519 5517 5516 5514 5513 5510 5508 5506 5505 5503 5502 5501 5500 5498 5497 5495 5493 5492 5490 5489 5487 5486 5485 5483 5482 5481 5481 5480 5480 5480 5480 5480 5480 5479
5521 5519 5522 5520 5518 5517 5515 5513 5511 5509 5508 5506 5504 5502 5501 5499 5497 5495 5493 5492 5490 5489 5487 5486 5484 5482 5481 5479 5477 5475 5474 5472 5471 5469 5468 5467 5466 5466 5465 5466 5466 5465 5465 5465
5513 5513 5512 5509 5507 5505 5503 5502 5500 5498 5497 5495 5493 5491 5489 5487 5485 5483 5481 5480 5478 5476 5475 5473 5471 5470 5468 5466 5464 5462 5460 5458 5457 5455 5454 5453 5452 5451 5451 5451 5451 5451 5450 5450
5503 5503 5501 5498 5496 5494 5492 5490 5488 5487 5485 5483 5481 5480 5478 5476 5474 5472 5470 5468 5466 5464 5463 5461 5459 5457 5455 5453 5451 5449 5447 5445 5443 5442 5440 5438 5437 5437 5436 5436 5436 5435 5435 5435
5492 5492 5489 5488 5485 5483 5481 5479 5477 5475 5473 5472 5470 5468 5466 5464 5463 5461 5458 5456 5454 5452 5450 5449 5447 5445 5442 5440 5438 5436 5433 5431 5429 5428 5426 5424 5423 5422 5422 5421 5420 5420 5420 5420
5483 5481 5478 5477 5474 5472 5470 5468 5466 5464 5462 5460 5458 5457 5455 5453 5451 5449 5447 5445 5443 5441 5439 5437 5435 5432 5430 5427 5425 5422 5420 5418 5416 5414 5412 5410 5409 5408 5406 5406 5405 5404 5404 5405
5471 5469 5467 5465 5463 5460 5458 5456 5454 5452 5450 5448 5446 5444 5443 5441 5439 5437 5435 5433 5431 5429 5427 5425 5422 5420 5417 5414 5412 5409 5407 5405 5403 5400 5398 5397 5395 5394 5393 5392 5390 5389 5389 5389
5459 5457 5455 5453 5451 5448 5446 5444 5442 5440 5438 5436 5434 5432 5431 5429 5427 5426 5424 5421 5419 5417 5415 5412 5410 5407 5404 5401 5399 5396 5394 5392 5390 5388 5385 5384 5382 5380 5379 5378 5377 5376 5375 5375
5448 5445 5443 5441 5439 5437 5434 5432 5430 5428 5426 5424 5422 5420 5418 5417 5415 5413 5411 5409 5407 5404 5402 5400 5397 5394 5392 5389 5387 5384 5382 5379 5377 5375 5373 5371 5369 5367 5366 5365 5364 5363 5363 5363
5437 5434 5432 5430 5427 5425 5422 5420 5418 5416 5413 5411 5409 5408 5406 5404 5402 5400 5398 5396 5394 5392 5390 5387 5384 5382 5379 5377 5375 5372 5370 5367 5365 5363 5361 5359 5357 5355 5353 5352 5352 5351 5351 5350
5426 5424 5421 5419 5416 5414 5411 5409 5406 5404 5401 5399 5397 5395 5393 5392 5390 5388 5386 5384 5382 5379 5377 5374 5372 5369 5367 5365 5362 5360 5358 5355 5353 5351 5349 5347 5345 5343 5342 5341 5340 5339 5339 5338
5415 5413 5410 5408 5405 5403 5400 5398 5395 5393 5390 5388 5386 5384 5382 5380 5378 5376 5374 5372 5370 5367 5364 5362 5359 5357 5355 5353 5350 5348 5346 5344 5342 5340 5338 5336 5334 5332 5331 5329 5328 5328 5327 5327
5406 5403 5401 5398 5395 5392 5390 5387 5385 5382 5380 5377 5375 5373 5371 5369 5367 5365 5362 5360 5358 5355 5352 5349 5347 5345 5343 5341 5338 5336 5335 5333 5331 5329 5327 5325 5323 5322 5320 5319 5318 5317 5316 5315
5397 5394 5392 5389 5386 5383 5380 5377 5374 5372 5369 5367 5365 5363 5361 5359 5356 5354 5351 5349 5346 5343 5341 5338 5335 5333 5331 5329 5327 5325 5323 5321 5320 5318 5316 5315 5313 5312 5310 5309 5307 5306 5305 5304
5388 5386 5383 5380 5377 5374 5371 5368 5365 5362 5359 5357 5355 5353 5351 5348 5346 5343 5341 5338 5336 5333 5330 5327 5324 5322 5320 5318 5316 5314 5312 5311 5309 5308 5306 5305 5303 5302 5300 5299 5297 5296 5295 5294
5379 5377 5374 5371 5368 5365 5361 5358 5355 5353 5350 5348 5345 5343 5340 5338 5336 5333 5330 5328 5325 5322 5320 5317 5314 5312 5310 5308 5306 5304 5302 5301 5299 5298 5297 5295 5294 5292 5290 5289 5288 5286 5285 5284
5370 5368 5365 5362 5359 5355 5352 5349 5346 5343 5341 5338 5335 5333 5330 5328 5325 5323 5321 5318 5315 5312 5310 5307 5305 5302 5300 5298 5296 5295 5293 5291 5289 5288 5287 5285 5284 5282 5281 5279 5278 5277 5276 5274
5361 5359 5356 5353 5350 5347 5344 5340 5337 5334 5332 5329 5326 5323 5321 5319 5316 5313 5311 5308 5306 5303 5301 5298 5296 5293 5291 5289 5287 5285 5283 5282 5280 5278 5277 5275 5274 5272 5271 5270 5269 5267 5266 5265
5353 5350 5347 5344 5341 5338 5335 5332 5329 5326 5323 5320 5317 5315 5312 5310 5307 5305 5302 5299 5297 5294 5292 5289 5287 5285 5282 5280 5278 5276 5274 5273 5271 5269 5268 5266 5264 5263 5262 5260 5259 5258 5257 5256
5345 5342 5339 5335 5332 5330 5327 5324 5321 5318 5315 5312 5310 5307 5304 5301 5299 5296 5293 5291 5288 5286 5284 5281 5279 5277 5274 5272 5270 5268 5266 5264 5262 5260 5259 5257 5256 5254 5253 5251 5250 5249 5248 5247
5336 5333 5330 5327 5324 5321 5318 5316 5313 5310 5307 5305 5302 5299 5296 5293 5291 5288 5285 5283 5280 5278 5276 5273 5271 5268 5266 5264 5262 5260 5258 5256 5254 5252 5250 5249 5247 5245 5244 5243 5241 5241 5240 5239